C/2017 K2 ( PanSTARRS )

Japanese version
Home page
Updated on September 24, 2019

---------------------------------------------------------------------

* Profile

Discovery Date May 21, 2017
Magnitude 20.8 mag
Discoverer Pan-STARRS 1 telescope (Haleakala)

* Pictures

* Orbital Elements

Epoch 2022 Dec. 7.0 TT = JDT 2459920.5
T 2022 Dec. 19.65483 TT                                 MPCW
q   1.7969607            (2000.0)            P               Q
z  -0.0004799      Peri.  236.19615     +0.01817891     +0.04923697
 +/-0.0000019      Node    88.23504     -0.18096586     +0.98245267
e   1.0008624      Incl.   87.56311     -0.98332135     -0.17989573
From 993 observations 2013 May 12-2019 May 14, mean residual 0".5.

* Finding Charts

* Magnitudes Graph

        m1 = 1.0 + 5 log d + 10.0 log r

---------------------------------------------------------------------

The orbital elements are published on M.P.E.C. 2019-J142.
The charts are made with StellaNavigator Ver.10 (AstroArts).
The magnitudes graphs are made with Comet for Windows.

---------------------------------------------------------------------

Copyright(C) Seiichi Yoshida (comet@aerith.net). All rights reserved.